Tracking 30995 objects as of 5-Jul-2025
HD Live streaming from Space Station
objects crossing your sky now

STARLINK-4274

Track STARLINK-4274 now!
10-day predictions
STARLINK-4274 is classified as:


NORAD ID: 52865
Int'l Code: 2022-062AM
Perigee: 545.9 km
Apogee: 547.8 km
Inclination: 53.2 °
Period: 95.4 minutes
Semi major axis: 6917 km
RCS: Unknown
Launch date: June 17, 2022
Source: United States (US)
Launch site: AIR FORCE EASTERN TEST RANGE (AFETR)
Your satellite tracking list
Your tracking list is empty




NASA's NSSDC Master Catalog

Two Line Element Set (TLE):
1 52865U 22062AM  25185.91747581  .00000072  00000-0  22618-4 0  9993
2 52865  53.2182  56.4110 0001396  94.5741 265.5411 15.08839802169010
Source of the keplerian elements: AFSPC